Regional Weather Roundup
Issued by NWS

Home | Current Version | Previous Version | Text Only | Print | Product List | Glossary Off
Versions: 1 2 3 4 5 6 7 8 9 10 11 12 13 14 15 16 17 18 19 20 21 22 23 24 25 26 27 28 29 30 31 32 33 34 35 36 37 38 39 40 41 42 43 44 45 46 47 48 49 50

000
ASUS43 KLSX 310507
RWRMO

WEATHER SUMMARY FOR MISSOURI
NATIONAL WEATHER SERVICE SPRINGFIELD MO
1200 AM CDT SUN AUG 31 2014

NOTE: "FAIR" INDICATES FEW OR NO CLOUDS BELOW 12,000 FEET WITH NO
       SIGNIFICANT WEATHER AND/OR OBSTRUCTIONS TO VISIBILITY.
       CURRENT SKY AND/OR WEATHER CONDITIONS ARE NOT AVAILABLE FOR
       CHILLICOTHE AND FARMINGTON.

MOZ001>031-035>038-043-044-053-054-310600-
...NORTHERN AND WESTERN MISSOURI...

CITY           SKY/WX    TMP DP  RH WIND       PRES   REMARKS
KANSAS CTY INT CLEAR     71  66  84 SE7       29.90F
KANSAS C DTWN  CLEAR     77  67  71 E5        29.89S
LEE`S SUMMIT   CLEAR     75  66  73 SE6       29.91F
ST JOSEPH      CLEAR     67  65  93 CALM      29.89S
CHILLICOTHE      N/A     69  66  90 CALM      29.92S
KIRKSVILLE     CLEAR     68  67  96 CALM      29.93S FOG

$$
MOZ066>068-077>081-088>096-101>105-310600-
...SOUTHWEST MISSOURI...

CITY           SKY/WX    TMP DP  RH WIND       PRES   REMARKS
SPRINGFIELD    CLEAR     70  66  87 S10       29.95F
JOPLIN         CLEAR     74  67  78 S7        29.94S

$$
MOZ032>034-039>042-045>050-055>058-069>072-310600-
...CENTRAL MISSOURI...

CITY           SKY/WX    TMP DP  RH WIND       PRES   REMARKS
COLUMBIA       PTCLDY    71  68  90 S5        29.93F
JEFFERSON CITY CLEAR     71  68  90 E5        29.92S
ROLLA          PTCLDY    69  67  93 S7        29.95S
SEDALIA        CLEAR     72  67  84 S8        29.93S
WHITEMAN AFB   CLEAR     71  68  89 S6        29.91F
OSAGE BEACH    CLEAR     72  66  83 S3        29.94S

$$
MOZ051-052-059>065-310600-
...EAST CENTRAL MISSOURI...

CITY           SKY/WX    TMP DP  RH WIND       PRES   REMARKS
ST LOUIS INTL  PTCLDY    77  72  84 S7        29.94S
SPIRIT OF STL  MOCLDY    75  70  84 CALM      29.93S
ST CHARLES     PTCLDY    74  71  91 CALM      29.92S

$$
MOZ072>076-082>087-097>100-106>115-310600-
...SOUTH CENTRAL AND SOUTHEAST MISSOURI...

CITY           SKY/WX    TMP DP  RH WIND       PRES   REMARKS
CAPE GIRARDEAU CLOUDY    74  72  93 S3        29.98F
FARMINGTON     CLOUDY    73  70  88 S10       30.00S
POPLAR BLUFF   MOCLDY    73  69  87 CALM      29.98R
WEST PLAINS    CLEAR     72  69  90 S5        29.99F

$$



USA.gov is the U.S. government's official web portal to all federal, state and local government web resources and services.